Dewpoint
58 58 58 59 59 59 59 59 60 61 61 61 61 61 60 60 60 60 61 61 61 61 61 62 63 63 62 62 62 62 54 38 34 31 26 27 41 60 61 63 63 63 61 38 33 31 27 25 28 30 34 35 36 37 39 39 38 35 29 27 26 26 22 25 19 20 23 20 20 19 18 18 19 21 22 20 19 18 19 19 18 19 19 21 24 26 25 29
57 58 58 58 58 59 59 59 60 60 61 61 61 61 60 59 59 60 60 60 60 61 61 62 62 63 62 61 62 60 44 38 33 31 27 42 54 60 62 63 63 63 58 35 32 29 24 21 30 31 31 29 38 34 37 35 36 31 28 29 24 24 25 24 21 21 20 22 20 20 19 18 18 18 18 18 18 19 19 19 18 18 19 20 22 25 26 25
57 57 57 58 58 58 58 59 59 60 60 60 61 61 60 59 59 59 60 60 60 60 61 61 62 62 62 62 59 58 42 38 29 24 25 59 58 61 62 62 63 63 41 36 39 31 24 23 31 27 29 27 28 31 33 31 34 32 24 22 24 27 22 22 22 22 21 21 19 18 19 18 20 18 18 20 18 18 20 20 19 17 19 20 21 23 22 21
57 56 56 57 57 58 58 58 59 59 60 60 61 61 60 60 60 59 59 59 60 60 61 61 62 62 62 61 61 50 37 33 25 25 31 56 59 62 61 61 62 54 41 39 37 31 31 30 29 27 30 25 28 33 27 29 25 30 23 20 22 26 21 19 21 22 22 20 20 18 19 18 19 19 18 17 18 17 18 20 19 19 18 19 20 22 21 19
56 56 56 56 57 57 58 58 59 59 60 60 60 60 60 60 61 60 59 59 59 60 60 61 62 62 62 60 58 48 35 27 28 33 37 54 60 60 59 64 59 45 42 35 29 28 27 28 29 30 26 21 29 25 29 28 29 25 21 19 23 25 22 21 21 23 21 22 18 18 17 18 20 21 18 17 16 16 18 19 20 20 19 19 19 20 20 17
55 56 56 56 56 57 57 57 58 59 59 59 60 60 60 60 60 60 59 59 59 60 60 61 61 62 62 59 42 37 30 19 31 33 56 60 59 59 59 62 56 34 28 28 29 29 23 22 25 28 25 22 22 20 21 25 26 19 17 18 23 24 20 23 22 23 19 19 18 18 19 19 18 19 19 17 17 19 21 21 19 18 19 19 19 20 18 18
55 55 55 56 56 56 57 57 58 58 59 59 60 60 60 60 59 59 60 59 59 60 60 61 61 62 60 58 45 36 31 31 35 37 53 59 56 57 56 59 49 33 24 22 24 29 28 23 24 28 25 25 24 22 22 25 23 20 16 19 23 24 20 22 22 25 20 18 18 18 20 18 18 17 20 17 17 18 17 16 18 17 19 17 17 18 17 16
55 55 56 56 56 55 56 57 57 58 58 59 59 60 60 60 60 60 59 59 59 59 61 61 61 61 59 42 37 35 31 33 36 39 53 55 43 47 50 40 38 37 29 25 24 28 28 24 20 27 22 19 22 19 22 22 17 21 21 23 22 23 21 23 22 21 20 20 22 21 19 18 18 19 19 18 18 18 15 17 16 17 17 16 16 16 16 16
56 56 56 56 56 55 56 57 57 58 58 59 59 60 60 60 60 60 59 59 59 59 60 61 60 61 54 38 34 26 23 36 37 39 45 39 37 38 38 33 37 30 33 34 30 26 27 26 26 23 19 24 24 19 21 15 13 24 22 24 22 21 20 20 21 21 21 22 21 19 18 19 19 23 18 18 19 17 15 15 16 16 15 15 15 15 14 15
55 55 56 56 56 56 56 56 56 57 58 58 59 60 60 59 60 59 59 59 59 59 61 61 61 59 41 34 31 22 28 38 40 42 40 38 36 37 38 40 33 28 25 28 30 24 24 25 26 27 25 24 25 19 24 22 20 23 24 23 21 21 20 21 21 20 22 22 21 18 18 18 19 20 15 16 17 16 15 15 15 15 15 14 14 15 14 15
56 56 56 56 56 56 56 56 56 57 57 58 59 59 60 60 60 59 59 59 58 59 61 60 59 56 36 31 28 24 37 39 40 42 40 40 38 36 37 38 37 33 29 31 32 34 26 25 34 28 28 19 19 19 21 21 22 22 22 20 21 20 21 20 20 19 21 19 20 19 18 21 18 22 15 16 15 15 15 14 14 15 15 14 14 14 17 15
56 56 56 56 56 56 56 56 56 56 57 58 58 59 59 59 59 59 59 59 59 60 61 60 55 39 34 31 27 28 38 38 43 41 42 40 38 38 39 39 35 35 26 26 32 38 37 32 27 16 18 23 15 21 21 24 22 21 20 18 19 22 19 20 19 20 22 18 20 19 19 18 20 16 18 16 15 15 15 14 14 14 14 15 14 14 15 15
56 56 56 56 56 56 56 56 56 56 57 58 58 59 59 59 59 59 59 58 58 61 61 58 51 41 36 30 31 36 39 41 41 40 41 42 41 41 40 40 38 34 32 27 31 37 39 31 26 23 27 20 18 18 23 24 22 21 20 19 19 21 20 20 22 20 19 18 21 19 17 18 17 17 17 16 14 14 14 14 14 14 13 13 13 13 14 16
56 56 56 56 56 56 56 56 56 56 57 58 58 59 59 59 58 58 58 59 60 61 61 55 44 36 30 27 32 36 37 39 38 35 39 41 37 40 33 36 36 37 41 37 40 40 38 35 30 26 29 19 18 28 18 23 22 18 19 24 22 20 20 21 21 20 18 23 21 18 20 17 18 18 18 16 14 14 14 13 13 14 14 13 14 13 14 15
56 56 56 56 56 56 55 55 55 56 57 58 58 58 58 57 58 58 59 60 60 61 59 53 40 35 29 29 33 36 54 36 35 38 40 35 38 33 32 34 32 34 37 38 38 40 35 34 27 22 24 27 24 19 17 24 23 21 15 19 24 20 21 23 25 19 18 20 23 18 19 17 18 18 19 15 14 14 15 14 13 13 14 13 12 12 12 13
56 56 56 55 56 55 55 55 55 56 57 57 58 58 57 57 57 59 61 61 61 60 47 43 43 34 29 27 34 49 36 33 32 38 41 37 35 30 33 32 34 29 30 30 33 31 31 29 23 22 22 18 18 22 23 25 25 23 19 20 21 24 22 19 21 23 24 22 23 18 19 18 18 18 15 14 14 13 14 14 13 12 12 13 12 12 12 12
56 56 55 55 56 56 55 56 55 56 57 57 57 57 57 56 58 59 59 58 53 51 45 37 40 35 23 31 35 33 33 36 41 40 39 38 33 32 29 31 29 28 28 31 31 31 29 26 28 26 25 20 23 25 20 23 20 22 22 20 25 19 19 19 22 22 25 20 19 21 19 18 18 19 15 14 14 13 13 13 13 13 12 12 13 12 12 12
56 56 55 56 56 56 55 55 56 56 57 57 57 57 54 55 58 54 52 49 47 47 44 42 37 26 21 30 28 30 38 39 39 39 37 35 29 27 26 25 26 27 27 24 29 26 29 26 30 26 27 25 17 23 18 11 16 20 22 22 22 21 18 19 20 21 16 21 18 18 18 18 18 19 15 13 13 13 13 13 13 13 12 13 13 13 12 12
56 56 55 56 56 55 55 55 55 56 56 56 57 52 53 51 42 37 34 33 37 30 22 30 22 18 13 18 30 35 37 39 38 36 34 32 34 31 31 28 27 21 23 23 22 26 29 28 30 28 24 21 15 20 18 19 23 21 23 23 23 20 20 18 19 19 17 16 15 17 18 17 18 18 18 15 13 13 13 14 14 13 13 13 13 13 13 14
56 56 56 55 55 55 55 55 56 56 56 55 49 38 35 30 30 22 30 30 29 27 18 17 29 31 33 32 32 37 38 34 32 33 35 32 30 25 23 27 30 27 22 25 30 27 29 25 24 24 24 23 21 19 22 22 22 21 22 22 18 20 19 20 19 17 19 16 14 15 16 16 16 16 17 17 14 14 14 14 14 14 14 14 13 13 13 13
57 56 56 56 55 55 55 55 55 56 56 51 42 27 9 19 16 17 24 24 26 30 26 26 28 29 26 33 37 34 32 31 31 32 32 32 25 24 23 23 25 25 25 28 28 28 28 25 25 25 24 23 23 21 18 16 16 18 19 19 18 20 18 20 20 20 21 19 19 20 19 19 19 19 18 18 16 15 14 14 14 14 14 15 14 14 14 13
57 57 56 56 56 54 54 55 55 56 54 43 32 22 22 24 27 24 25 21 29 33 34 34 34 28 35 35 37 33 33 30 30 32 32 31 27 25 25 22 22 23 26 26 25 26 24 24 24 26 24 19 18 17 18 18 18 19 18 20 20 20 21 20 20 22 19 21 18 19 18 19 20 20 20 20 20 19 18 16 16 15 16 15 15 15 14 15
57 57 56 56 55 56 55 55 55 55 42 34 35 35 35 41 42 42 35 29 31 34 35 34 30 32 32 36 35 33 31 28 24 30 31 29 26 26 23 21 21 22 25 24 23 24 22 24 25 25 21 19 17 16 17 18 21 18 20 19 19 23 20 19 23 22 20 19 21 21 20 20 20 21 21 21 21 21 22 20 19 20 17 16 15 15 16 15
56 56 56 56 56 56 56 55 55 47 43 35 37 36 40 40 43 43 34 27 25 27 32 34 32 34 33 29 33 31 29 28 29 29 31 26 25 26 22 21 21 23 20 23 22 23 20 25 25 22 20 22 17 17 16 17 18 23 22 21 21 23 22 22 20 21 21 23 22 19 19 16 19 19 20 23 20 21 21 21 21 21 22 20 23 21 19 16
56 56 56 55 55 56 56 55 45 44 44 41 40 41 40 41 44 43 32 19 18 21 33 32 37 37 36 37 36 32 33 25 29 29 28 26 23 22 22 22 21 20 21 23 24 24 23 25 22 21 21 20 21 17 18 21 18 22 24 21 22 23 22 23 23 20 20 22 21 20 13 9 21 21 21 22 21 19 19 20 20 20 20 20 19 19 20 22
56 56 56 56 55 56 55 47 40 44 44 40 39 42 40 40 41 36 20 16 18 21 23 22 38 30 38 32 34 33 28 27 27 26 34 25 33 23 21 20 21 20 22 24 24 25 23 23 23 23 20 21 22 22 23 22 20 21 22 24 23 23 23 22 20 23 20 17 22 22 16 12 18 18 19 22 21 20 20 21 20 20 20 19 20 20 19 19
56 56 56 56 56 55 48 37 43 43 36 39 42 42 42 42 40 41 4 12 6 20 19 27 29 29 36 32 31 27 19 25 22 22 23 28 25 26 20 20 21 22 24 24 22 20 22 22 23 23 22 22 21 19 21 21 22 20 25 24 23 22 22 23 21 23 22 24 23 21 22 18 18 18 21 21 19 19 20 20 21 21 20 20 19 20 20 20
55 55 56 56 55 54 50 47 44 37 38 43 45 43 43 43 43 30 12 0 -2 26 26 29 32 35 36 32 30 22 24 24 21 22 22 22 25 23 22 20 21 21 19 25 21 25 23 23 23 22 22 20 20 22 23 25 21 21 25 24 23 22 22 22 20 19 18 18 20 19 21 17 17 19 18 19 20 20 20 20 20 20 21 20 20 20 20 20
56 56 56 56 53 51 45 44 40 37 45 46 42 43 40 38 32 17 10 -0 11 26 31 30 36 32 29 30 28 25 24 27 21 23 25 23 25 23 21 21 22 21 20 25 20 25 24 24 24 24 23 21 23 24 24 25 21 24 24 24 22 21 21 20 18 18 17 17 19 19 19 13 12 20 17 17 19 19 19 19 19 20 21 21 20 20 21 20
56 56 56 55 50 47 44 40 41 43 45 45 42 39 39 31 12 12 3 -1 18 17 24 27 28 29 30 28 28 27 25 26 22 21 21 21 23 24 23 23 19 20 22 24 22 25 25 29 29 23 22 23 25 25 24 23 24 25 24 23 24 20 19 16 16 16 15 14 19 19 19 16 12 17 18 18 19 18 17 18 19 19 21 20 20 20 22 21
56 56 56 54 49 47 43 42 41 46 46 45 42 38 31 27 17 7 2 11 10 20 25 28 26 31 28 28 27 28 27 25 24 20 19 21 21 22 22 21 26 25 23 23 23 24 24 23 24 25 28 26 26 24 25 24 24 24 22 21 22 21 17 11 6 13 11 14 14 16 18 17 14 13 20 18 19 19 17 16 17 18 20 20 20 19 19 20
55 56 56 53 50 48 47 42 44 45 42 41 36 32 20 13 20 2 2 10 5 19 22 24 28 28 28 29 28 26 27 25 25 19 19 19 21 20 21 20 22 16 18 20 22 23 22 24 25 25 31 26 25 24 24 25 23 24 23 21 13 14 14 12 7 8 9 11 13 16 18 16 17 14 18 19 19 19 19 17 16 18 19 22 22 21 20 21
55 55 55 54 49 47 47 46 46 44 43 38 32 24 18 14 2 11 8 5 3 21 19 28 27 27 27 28 27 27 28 26 25 20 23 24 21 22 23 21 25 20 14 20 19 18 22 23 24 24 25 28 26 21 21 20 21 22 22 19 14 8 8 8 8 1 7 12 14 14 17 13 13 15 17 17 18 19 20 19 20 21 20 21 23 22 19 21
55 55 53 52 51 50 47 46 45 44 40 39 27 25 22 8 5 26 12 11 6 23 27 26 27 27 27 27 27 27 25 28 24 22 23 23 20 20 21 21 24 24 23 20 14 16 10 16 18 23 20 26 26 24 23 21 21 21 23 21 19 14 8 5 4 -1 5 8 11 15 8 14 6 10 19 18 18 19 20 21 21 21 21 22 22 20 20 19
55 54 53 51 50 49 48 46 45 45 41 33 26 22 16 11 12 12 12 12 13 24 26 28 26 25 26 26 26 27 27 23 25 23 22 24 21 20 21 20 23 25 25 17 22 16 15 15 19 24 25 26 25 26 25 23 22 21 23 23 17 18 17 6 10 4 7 13 14 9 14 14 11 18 23 19 19 20 20 21 22 21 20 19 17 17 17 17
53 52 53 51 50 51 49 47 45 44 38 30 25 21 13 10 10 17 10 17 20 15 25 24 25 22 23 23 25 26 27 24 26 24 24 24 24 22 24 23 23 23 22 19 21 19 16 14 23 24 25 25 24 24 24 24 16 19 22 19 23 24 17 14 14 6 6 8 14 6 14 16 17 16 17 17 18 19 19 19 19 19 20 20 17 17 16 17
52 51 49 50 50 50 49 46 47 45 35 29 23 19 19 14 16 19 30 10 16 23 21 9 17 20 20 20 23 25 26 24 25 24 22 24 22 25 25 25 25 24 23 21 22 27 20 19 24 24 22 23 18 21 21 20 25 21 18 21 21 25 24 20 14 10 4 10 13 10 11 8 8 9 17 17 16 16 16 17 17 18 19 16 17 18 18 18
51 50 50 49 50 49 48 47 47 41 34 30 23 28 21 16 18 8 25 19 19 22 19 11 10 21 18 16 17 24 26 22 23 22 21 21 17 26 24 24 26 24 23 24 20 27 23 15 21 24 23 21 22 22 23 24 22 21 20 25 18 13 13 18 13 11 7 7 11 12 10 10 8 7 14 15 16 16 16 17 17 17 17 18 17 17 16 16
51 49 45 48 50 49 48 48 46 42 32 28 25 26 27 17 19 17 24 21 24 22 15 16 5 16 19 18 17 25 24 18 23 22 17 20 19 24 24 25 25 25 23 24 21 23 23 18 15 25 20 21 21 23 21 20 20 21 20 17 18 18 14 15 18 13 13 7 2 10 8 5 2 11 12 11 15 16 16 17 17 17 17 17 17 17 17 16
48 45 43 49 49 49 49 50 46 42 34 27 24 24 28 24 23 26 23 20 20 18 17 14 18 5 21 20 23 18 25 21 23 23 19 22 20 24 23 25 26 26 25 24 24 27 22 17 15 20 22 23 19 21 21 20 19 17 16 16 12 13 16 18 14 15 12 5 7 5 6 7 14 13 14 12 12 14 16 17 19 19 18 18 18 18 18 17
49 44 43 48 49 50 50 48 43 38 36 33 28 24 25 23 25 23 23 23 23 23 17 20 19 12 14 20 20 24 24 25 24 22 22 21 19 12 23 24 28 26 26 26 24 25 21 18 18 19 19 19 19 20 23 23 21 19 18 17 16 16 12 10 13 12 10 10 10 8 8 11 13 16 16 17 18 18 18 18 19 20 20 20 20 18 17 18
46 38 41 48 49 50 47 40 39 41 38 34 30 29 26 35 26 27 24 25 24 22 25 22 24 18 17 16 19 23 23 24 24 22 22 20 22 18 18 25 27 27 25 24 24 26 25 23 20 20 17 18 20 21 21 20 23 21 20 18 19 16 17 12 11 15 9 15 13 13 9 12 19 18 21 22 22 20 19 20 21 22 23 23 23 20 17 16
44 41 45 48 49 49 44 38 40 39 37 37 34 33 29 29 26 26 24 24 23 24 23 24 21 20 22 17 22 21 24 21 25 23 23 24 23 21 22 27 28 26 28 25 27 25 30 20 18 19 20 20 20 21 20 20 20 21 21 19 18 16 17 16 17 14 15 13 14 10 12 14 17 22 25 23 24 24 24 23 22 23 22 20 18 17 14 13
44 43 43 48 50 49 41 33 34 36 38 39 36 34 30 29 28 27 26 26 23 25 21 20 22 19 18 24 22 18 23 16 23 24 21 25 24 26 27 28 26 26 24 23 21 30 20 25 20 19 16 17 14 20 18 19 20 20 20 21 20 20 18 17 17 15 12 16 16 16 11 12 15 19 19 19 17 18 17 16 19 22 20 18 15 14 14 13
45 45 43 45 48 47 38 38 33 35 37 38 37 36 35 33 33 29 27 26 26 25 24 21 18 24 22 26 25 23 25 17 16 26 22 22 23 25 25 28 26 25 24 27 29 28 23 24 21 17 14 12 8 6 11 14 19 19 17 20 20 20 18 17 16 16 16 17 16 15 13 12 12 14 15 16 14 16 15 13 13 14 16 15 16 16 15 13
42 35 40 40 44 43 43 43 39 34 35 37 36 36 36 34 33 31 31 28 26 27 26 27 29 23 23 25 22 22 22 25 20 18 22 22 23 25 25 27 26 27 33 33 31 26 23 24 21 17 15 12 9 8 17 22 19 17 18 20 21 21 21 21 20 17 16 16 17 17 16 13 13 13 14 13 14 14 14 17 14 15 14 12 13 16 16 14
43 39 35 32 41 40 39 41 39 39 34 36 33 35 34 35 34 31 33 29 30 26 28 28 27 24 23 22 21 20 21 22 25 22 19 19 25 26 26 25 25 28 33 31 32 26 25 20 22 20 17 15 13 12 18 20 15 18 18 18 20 21 22 22 20 17 18 17 16 18 18 19 18 17 17 16 16 16 16 17 18 20 22 21 18 15 19 11
39 41 41 40 36 32 34 35 39 38 38 35 33 35 31 32 33 32 30 32 30 30 28 28 28 26 23 22 21 19 19 21 22 21 23 23 22 26 25 25 26 32 29 27 30 25 21 20 20 20 19 19 17 15 15 19 15 14 18 17 17 20 22 21 21 21 19 18 15 16 19 19 18 18 17 17 17 17 17 18 19 20 22 22 20 16 14 12
45 41 43 44 38 39 37 37 38 38 37 36 34 33 32 31 30 32 30 30 30 29 29 26 26 26 26 27 26 22 21 18 20 21 21 22 24 23 23 26 28 28 28 26 26 27 23 22 22 20 20 20 20 20 21 18 16 15 16 18 18 16 19 21 20 21 20 20 19 18 19 18 18 17 17 17 18 19 20 21 22 22 22 23 22 18 14 12
42 41 39 43 41 41 39 38 38 38 36 38 34 33 32 31 30 30 31 30 28 29 30 27 27 27 27 28 27 23 23 21 18 18 25 22 26 25 24 24 24 26 27 26 26 27 23 22 25 22 22 23 23 23 21 20 19 17 18 18 18 17 18 20 20 20 20 19 19 19 19 19 20 20 20 20 21 21 22 21 21 22 22 23 23 23 20 16
46 46 45 41 38 39 40 39 38 37 35 36 35 34 34 31 30 30 30 31 29 28 29 28 28 28 28 28 27 26 26 25 25 24 27 25 23 30 27 30 31 26 26 26 25 25 26 24 26 26 23 23 25 25 24 22 21 20 19 19 18 18 18 18 19 19 18 18 18 18 20 18 19 20 21 22 21 22 22 22 22 22 22 23 23 24 24 23
49 46 46 43 38 40 39 39 39 37 33 36 36 35 35 34 33 32 30 32 31 31 31 30 30 29 28 27 27 27 28 28 28 27 26 28 30 34 35 34 34 31 27 27 27 26 27 25 24 24 23 22 26 25 23 23 23 22 23 22 22 22 21 21 21 22 21 21 20 20 19 20 20 21 21 21 22 23 23 22 23 23 24 24 24 25 25 25